This is the latest recevied weather packets stored in our database for station/object HB9UQS-13. If no packets are shown the sender has not sent any weather packets the latest 1 day(s).
| Time | Temp. | Humidity | Pressure | Rain* | Wind** | Luminosity | Snow |
|---|---|---|---|---|---|---|---|
| 1778096250 | 7.78° C | 87% | 925.2 hPa | 0 mm | - | 0 W/m² | - |
| 1778094450 | 8.33° C | 85% | 925 hPa | 0 mm | - | 0 W/m² | - |
| 1778092650 | 8.89° C | 84% | 924.9 hPa | 0 mm | - | 0 W/m² | - |
| 1778085451 | 9.44° C | 85% | 924.3 hPa | 0 mm | - | 0 W/m² | - |
| 1778083651 | 9.44° C | 83% | 924.2 hPa | 0 mm | - | 0 W/m² | - |
| 1778078250 | 8.89° C | 92% | 924.2 hPa | 0 mm | - | 0 W/m² | - |
| 1778072851 | 8.89° C | 90% | 923.9 hPa | 0 mm | - | 0 W/m² | - |
| 1778071050 | 8.89° C | 92% | 923.9 hPa | 0 mm | - | 0 W/m² | - |
| 1778069250 | 8.33° C | 93% | 923.5 hPa | 0 mm | - | 0 W/m² | - |
| 1778063850 | 8.33° C | 95% | 923.4 hPa | 0 mm | - | 0 W/m² | - |
| 1778060250 | 8.89° C | 95% | 922.7 hPa | 0 mm | - | 0 W/m² | - |
| 1778056650 | 9.44° C | 93% | 922 hPa | 0 mm | - | 0 W/m² | - |
| 1778053050 | 9.44° C | 93% | 921.5 hPa | 0 mm | - | 0 W/m² | - |
| 1778049450 | 8.89° C | 98% | 921.7 hPa | 0 mm | - | 0 W/m² | - |
| 1778047650 | 8.33° C | 97% | 921.7 hPa | 0 mm | - | 0 W/m² | - |
| 1778044050 | 5° C | 96% | 922 hPa | 0 mm | - | 0 W/m² | - |
| 1778040450 | 4.44° C | 96% | 922 hPa | 0 mm | - | 0 W/m² | - |
| 1778038651 | 5° C | 95% | 922.1 hPa | 0 mm | - | 0 W/m² | - |
| 1778036850 | 5° C | 96% | 922.4 hPa | 0 mm | - | 0 W/m² | - |
| 1778035050 | 6.67° C | 95% | 922.9 hPa | 0 mm | - | 0 W/m² | - |
| 1778033250 | 5.56° C | 93% | 923 hPa | 0 mm | - | 0 W/m² | - |
| 1778031450 | 7.22° C | 89% | 923.2 hPa | 0 mm | - | 0 W/m² | - |
| 1778029650 | 8.89° C | 88% | 923.5 hPa | 0 mm | - | 0 W/m² | - |
| 1778027850 | 9.44° C | 90% | 924.1 hPa | 0 mm | - | 0 W/m² | - |
| 1778024251 | 8.89° C | 93% | 924.5 hPa | 0 mm | - | 0 W/m² | - |
* Rain latest hour (hover to see other rain measurements)
** Current wind speed in m/s (hover to see current wind gust speed)